Home   Weather   Bridgeport   Past weeks

Flag for USA Past Weather in Bridgeport, Connecticut, USA — Yesterday and Last 2 Weeks

Now
52 °F

Sunny.


Feels Like: 52 °F
Forecast: 46 / 59 °F
Wind: No wind

Location: Sikorsky Memorial Airport

Current Time: Feb 24, 2017 at 10:11:59 am

Latest Report: Feb 24, 2017 at 8:52 am


Visibility: 10 mi

Pressure: 29.96 "Hg

Humidity: 86%

Dew Point: 48 °F

Location of BridgeportLocation

Past Weather in Bridgeport — Graph

°F

Bridgeport Temperature Yesterday

Maximum temperature yesterday: 54 °F (at 2:19 pm)
Minimum temperature yesterday: 37 °F (at 6:52 am)
Average temperature yesterday: 45 °F

High & Low Weather Summary for the Past Weeks

 TemperatureHumidityPressure
High63 °F (Feb 19, 12:52 pm)97% (Feb 23, 8:17 am)30.40 "Hg (Feb 23, 8:17 am)
Low17 °F (Feb 9, 11:52 pm)21% (Feb 20, 12:52 pm)29.28 "Hg (Feb 15, 4:52 pm)
Average37 °F64%29.86 "Hg
* Reported Feb 9 8:52 am — Feb 24 8:52 am, Bridgeport, Weather by CustomWeather, © 2017

Note: Actual official high and low records may vary slightly from our data, if they occured in-between our weather recording intervals... More about our weather records

Advertising

Bridgeport Weather History for the Previous 24 Hours

Scroll right to see more
 ConditionsComfort  
Time TempWeatherWind HumidityBarometerVisibility
8:52 am
Fri, Feb 24
52 °FSunny.No wind86%29.96 "Hg10 mi
7:52 am47 °FPassing clouds.5 mph90%29.96 "Hg8 mi
7:08 am43 °FFog.3 mph93%29.95 "Hg3 mi
6:11 am42 °FFog.No wind89%29.94 "Hg3 mi
5:52 am42 °FFog.3 mph89%29.94 "Hg3 mi
5:36 am43 °FFog.No wind93%29.94 "Hg2 mi
4:52 am44 °FClear.No wind89%29.93 "Hg8 mi
3:52 am47 °FClear.5 mph86%29.93 "Hg10 mi
2:52 am44 °FPassing clouds.3 mph85%29.92 "Hg8 mi
1:52 am47 °FFog.3 mph86%29.92 "Hg5 mi
12:52 am46 °FFog.No wind89%29.91 "Hg6 mi
11:52 pm
Thu, Feb 23
45 °FFog.No wind90%29.91 "Hg5 mi
10:52 pm45 °FFog.3 mph90%29.90 "Hg4 mi
9:52 pm47 °FFog.3 mph86%29.89 "Hg6 mi
8:52 pm47 °FFog.No wind86%29.89 "Hg5 mi
7:52 pm48 °FFog.No wind86%29.88 "Hg6 mi
6:52 pm46 °FPassing clouds.No wind83%29.88 "Hg6 mi
5:52 pm50 °FClear.No wind80%29.85 "Hg8 mi
4:52 pm47 °FSunny.6 mph80%29.82 "Hg8 mi
3:52 pm52 °FSunny.5 mph75%29.81 "Hg10 mi
2:52 pm54 °FSunny.7 mph80%29.80 "Hg6 mi
2:19 pm54 °FScattered clouds.7 mph77%29.82 "Hg5 mi
1:20 pm50 °FFog.6 mph86%29.84 "Hg4 mi
1:05 pm48 °FFog.3 mph86%29.84 "Hg4 mi
11:52 am46 °FFog.5 mph86%29.87 "Hg2 mi
11:35 am47 °FFog.3 mph90%29.88 "Hg2 mi
10:52 am45 °FLow clouds.3 mph82%29.90 "Hg7 mi
Weather by CustomWeather, © 2017

See weather overviewHow to use our weather pages